Chicago DuPage, IL

3:11 AM CDT on May 26, 2017 (GMT -0500)
Du Page

Weather History for KDPA - March, 2012

Change the Weather History Date:

Wednesday, March 7, 2012

  Actual Average Record
Temperature  
Mean Temperature 59 °F 35 °F  
Max Temperature 66 °F 44 °F 78 °F (2000)
Min Temperature 51 °F 25 °F 9 °F (1999)
Degree Days  
Heating Degree Days 6 30  
Month to date heating degree days 191 220  
Since 1 July heating degree days 4975  
Cooling Degree Days 0 0  
Month to date cooling degree days 0 0  
Year to date cooling degree days 0 0  
Growing Degree Days 8 (Base 50)    
Moisture  
Dew Point 41 °F    
Average Humidity 52    
Maximum Humidity 60    
Minimum Humidity 43    
Precipitation  
Precipitation 0.00 in 0.07 in 0.71 in (2009)
Month to date precipitation 0.18 0.52  
Year to date precipitation 2.30 3.25  
Sea Level Pressure  
Sea Level Pressure 29.88 in    
Wind  
Wind Speed 23 mph (SSW)    
Max Wind Speed 36 mph    
Max Gust Speed 49 mph    
Visibility 10 miles    
Events      
T = Trace of Precipitation, MM = Missing Value Source: NWS Daily Summary

Daily Weather History Graph

Daily Weather History Graph

Search for Another Location

Airport or City:

Trip Planner

Search our weather history database for the weather conditions in past years. The results will help you decide how hot, cold, wet, or windy it might be!

Date:

Astronomy

Mar. 07, 2012 Rise Set
Actual Time 6:17 AM CST 5:50 PM CST
Civil Twilight 5:49 AM CST 6:18 PM CST
Nautical Twilight 5:17 AM CST 6:51 PM CST
Astronomical Twilight 4:44 AM CST 7:23 PM CST
Moon 5:27 PM CST (3/7) 5:27 AM CST (3/7)
Length of Visible Light 12h 29m
Length of Day
11h 33m
Waxing Gibbous, 99% of the Moon is Illuminated
Mar 7
Waxing Gibbous
Mar 8
Full
Mar 14
Last Quarter
Mar 22
New
Mar 30
First Quarter

Hourly Weather History & Observations

Time (CST) Temp. Dew Point Humidity Pressure Visibility Wind Dir Wind Speed Gust Speed Precip Events Conditions
12:52 AM 51.1 °F 35.1 °F 54% 29.96 in 10.0 mi South 15.0 mph - N/A   Clear
1:52 AM 51.1 °F 35.1 °F 54% 29.97 in 10.0 mi South 15.0 mph - N/A   Mostly Cloudy
2:52 AM 52.0 °F 34.0 °F 50% 29.96 in 10.0 mi South 15.0 mph 25.3 mph N/A   Overcast
3:52 AM 53.1 °F 32.0 °F 45% 29.95 in 10.0 mi South 18.4 mph 32.2 mph N/A   Overcast
4:52 AM 53.1 °F 32.0 °F 45% 29.96 in 10.0 mi South 21.9 mph 31.1 mph N/A   Overcast
5:52 AM 53.1 °F 30.9 °F 43% 29.96 in 10.0 mi South 24.2 mph 32.2 mph N/A   Overcast
6:52 AM 53.1 °F 32.0 °F 45% 29.96 in 10.0 mi South 23.0 mph 34.5 mph N/A   Overcast
7:52 AM 54.0 °F 33.1 °F 45% 29.95 in 10.0 mi South 26.5 mph 38.0 mph N/A   Mostly Cloudy
8:52 AM 55.0 °F 36.0 °F 49% 29.94 in 10.0 mi South 23.0 mph 33.4 mph N/A   Overcast
9:52 AM 57.9 °F 39.0 °F 49% 29.93 in 10.0 mi South 19.6 mph 36.8 mph N/A   Overcast
10:52 AM 60.1 °F 41.0 °F 49% 29.91 in 10.0 mi South 19.6 mph 33.4 mph N/A   Overcast
11:52 AM 63.0 °F 43.0 °F 48% 29.89 in 10.0 mi SSW 29.9 mph 41.4 mph N/A   Overcast
12:52 PM 64.9 °F 45.0 °F 48% 29.86 in 10.0 mi SSW 31.1 mph 43.7 mph N/A   Mostly Cloudy
1:52 PM 64.0 °F 46.0 °F 52% 29.85 in 10.0 mi SSW 23.0 mph 40.3 mph N/A   Overcast
2:52 PM 64.9 °F 46.0 °F 50% 29.83 in 10.0 mi SSW 31.1 mph 43.7 mph N/A   Overcast
3:52 PM 63.0 °F 45.0 °F 52% 29.83 in 10.0 mi SSW 26.5 mph 36.8 mph N/A   Overcast
4:52 PM 63.0 °F 46.0 °F 54% 29.82 in 10.0 mi South 21.9 mph 44.9 mph N/A   Overcast
5:52 PM 62.1 °F 46.0 °F 56% 29.83 in 10.0 mi South 20.7 mph 39.1 mph N/A   Overcast
6:52 PM 62.1 °F 46.0 °F 56% 29.83 in 10.0 mi South 25.3 mph 34.5 mph N/A   Overcast
7:52 PM 62.1 °F 46.9 °F 58% 29.82 in 10.0 mi South 25.3 mph 39.1 mph N/A   Overcast
8:52 PM 62.1 °F 46.9 °F 58% 29.81 in 10.0 mi SSW 24.2 mph 43.7 mph N/A   Overcast
9:52 PM 62.1 °F 48.0 °F 60% 29.78 in 10.0 mi South 19.6 mph 38.0 mph N/A   Mostly Cloudy
10:52 PM 63.0 °F 48.0 °F 58% 29.76 in 10.0 mi SSW 26.5 mph 38.0 mph N/A   Overcast
11:52 PM 63.0 °F 48.9 °F 60% 29.75 in 10.0 mi SSW 25.3 mph 38.0 mph N/A   Overcast